EW5678 Weather Reports


Display with metric or nautical units.
time (UTC)temp
F
wind
direction
speed
MPH
gust
MPH
rain 1hr
in
rain 24hr
in
rain mn
in
humidity
%
barometer
mb
20260503221742 55 301 15.0 23.0 0.00 0.00 0.00 40 999.2
20260503220842 54 300 16.0 25.0 0.00 0.00 0.00 40 999.3
20260503215042 54 302 19.0 29.0 0.00 0.00 0.00 40 999.2
20260503214142 54 307 19.0 28.0 0.00 0.00 0.00 40 999.2
20260503213242 54 304 15.0 22.0 0.00 0.00 0.00 43 999.1
20260503212342 54 304 15.0 24.0 0.00 0.00 0.00 50 999.1
20260503211442 54 301 14.0 23.0 0.00 0.00 0.00 48 999.1
20260503210542 53 299 22.0 27.0 0.00 0.00 0.00 47 999.0
20260503203842 53 301 16.0 27.0 0.00 0.00 0.00 41 999.0
20260503202042 52 306 18.0 28.0 0.00 0.00 0.00 42 999.0
20260503201142 52 304 21.0 29.0 0.00 0.00 0.00 43 999.1
20260503200242 52 301 19.0 30.0 0.00 0.00 0.00 45 999.2
20260503195342 51 299 21.0 33.0 0.00 0.00 0.00 46 999.2
20260503194442 51 294 25.0 34.0 0.00 0.00 0.00 47 999.1
20260503193542 51 293 21.0 33.0 0.00 0.00 0.00 48 999.2
20260503192642 51 305 23.0 35.0 0.00 0.00 0.00 51 999.2
20260503191742 50 292 23.0 35.0 0.00 0.00 0.00 46 999.2
20260503190842 50 292 26.0 35.0 0.00 0.00 0.00 49 999.3
20260503185942 51 297 22.0 38.0 0.00 0.00 0.00 49 999.3
20260503185042 50 291 27.0 39.0 0.00 0.00 0.00 50 999.4
20260503184142 50 294 26.0 43.0 0.00 0.00 0.00 48 999.0
20260503183241 51 297 27.0 41.0 0.00 0.00 0.00 46 999.0
20260503182341 51 307 28.0 41.0 0.00 0.00 0.00 45 999.2
20260503181441 51 308 18.0 41.0 0.00 0.00 0.00 44 999.4
20260503180541 50 291 14.0 24.0 0.00 0.00 0.00 50 999.3
20260503175641 50 299 15.0 23.0 0.00 0.00 0.00 47 999.3
20260503174741 49 299 15.0 22.0 0.00 0.00 0.00 49 999.4
20260503173841 49 306 18.0 27.0 0.00 0.00 0.00 48 999.5
20260503172941 49 306 19.0 31.0 0.00 0.00 0.00 45 999.5
20260503172041 49 308 21.0 30.0 0.00 0.00 0.00 49 999.5
20260503171141 49 302 21.0 30.0 0.00 0.00 0.00 48 999.6
20260503170241 49 305 19.0 30.0 0.00 0.00 0.00 52 999.6
20260503150541 47 333 28.0 37.0 0.00 0.00 0.00 56 999.7
20260503130840 43 310 22.0 33.0 0.00 0.00 0.00 66 999.5
20260503110240 42 354 26.0 36.0 0.00 0.01 0.00 69 999.4
20260503081139 44 6 24.0 33.0 0.00 0.01 0.00 58 999.2
20260503080239 44 9 22.0 30.0 0.00 0.01 0.00 57 999.1
20260503072639 45 25 16.0 21.0 0.00 0.01 0.00 60 999.0
20260503071739 45 31 19.0 27.0 0.00 0.01 0.00 60 999.1
20260503054739 47 26 18.0 24.0 0.00 0.01 0.00 57 999.3
20260503053839 47 30 15.0 21.0 0.00 0.01 0.00 60 999.6
20260503052039 48 34 21.0 32.0 0.00 0.01 0.00 54 999.5
20260503051139 48 33 17.0 27.0 0.00 0.01 0.00 57 999.7
20260503045339 48 36 15.0 23.0 0.00 0.01 0.00 58 999.9
20260503044439 49 40 18.0 26.0 0.00 0.01 0.00 57 999.9
20260503042639 49 38 16.0 24.0 0.00 0.01 0.00 57 1000.0
20260503041739 49 38 15.0 23.0 0.00 0.01 0.00 57 1000.1
20260503040838 49 38 16.0 24.0 0.00 0.01 0.00 56 1000.3
20260503035938 49 40 18.0 27.0 0.00 0.01 0.00 56 999.9
20260503035038 50 43 15.0 28.0 0.00 0.01 0.00 55 1000.0
20260503034138 50 40 15.0 23.0 0.00 0.01 0.00 57 999.8
20260503033238 50 39 14.0 22.0 0.00 0.01 0.00 57 999.8
20260503031438 50 39 13.0 20.0 0.00 0.01 0.00 60 999.8
20260503025638 51 38 15.0 25.0 0.00 0.01 0.00 61 999.9
20260503023838 51 36 15.0 23.0 0.00 0.01 0.00 65 999.9
20260503022938 51 28 18.0 25.0 0.00 0.01 0.00 63 1000.1
20260503022038 51 351 15.0 24.0 0.00 0.01 0.00 71 1000.1
20260503021138 51 330 12.0 20.0 0.00 0.01 0.00 78 1000.2
20260503020238 51 292 5.0 8.0 0.00 0.01 0.00 82 1000.2
20260503015338 51 289 3.0 6.0 0.00 0.01 0.00 80 1000.2
20260503014438 52 272 1.0 3.0 0.00 0.01 0.00 79 999.9
20260503012638 52 265 2.0 7.0 0.00 0.01 0.00 79 1000.1
20260503011738 52 235 2.0 6.0 0.00 0.01 0.00 79 999.9
20260503010838 52 244 2.0 5.0 0.00 0.01 0.00 79 999.9
20260503005938 53 338 2.0 4.0 0.00 0.01 0.00 78 999.8
20260503005038 53 328 2.0 4.0 0.00 0.01 0.00 78 999.7
20260503004138 53 220 2.0 4.0 0.00 0.01 0.00 77 999.5
20260503003238 53 173 2.0 5.0 0.00 0.01 0.00 74 999.6
20260503002338 54 182 2.0 5.0 0.00 0.01 0.00 68 999.6
20260503000537 54 193 3.0 5.0 0.00 0.01 0.00 67 999.5
20260502235637 54 176 2.0 5.0 0.00 0.01 0.01 67 999.4
20260502234737 54 162 1.0 4.0 0.00 0.01 0.01 67 999.4
20260502233837 54 185 4.0 5.0 0.00 0.01 0.01 66 999.4
20260502232937 55 224 3.0 5.0 0.00 0.01 0.01 64 999.4
20260502232037 55 233 3.0 7.0 0.00 0.01 0.01 65 999.3
20260502231137 56 98 1.0 4.0 0.00 0.01 0.01 64 999.3
20260502225337 55 114 1.0 3.0 0.00 0.01 0.01 66 999.3
20260502224437 55 98 1.0 3.0 0.00 0.01 0.01 65 999.4
20260502223537 55 86 0.0 2.0 0.00 0.01 0.01 65 999.3